Time,TemperatureF,DewpointF,PressureIn,WindDirection,WindDirectionDegrees,WindSpeedMPH,WindSpeedGustMPH,Humidity,HourlyPrecipIn,Conditions,Clouds,dailyrainin,SoftwareType,DateUTC
2013-06-10 00:00:00,36.8,36.8,30.24,NNE,26,4.0,4.0,100,0.00,,,0.00,Wunderground v.1.15,2013-06-10 08:00:00,
2013-06-10 00:10:00,36.8,36.8,30.24,NNE,15,5.0,5.0,100,0.00,,,0.00,Wunderground v.1.15,2013-06-10 08:10:00,
2013-06-10 00:15:00,36.6,36.6,30.25,NNE,23,5.0,5.0,100,0.00,,,0.00,Wunderground v.1.15,2013-06-10 08:15:00,
2013-06-10 00:25:00,36.6,36.6,30.25,NNE,20,5.0,5.0,100,0.00,,,0.00,Wunderground v.1.15,2013-06-10 08:25:00,
2013-06-10 00:30:00,36.6,36.6,30.25,NNE,16,5.0,5.0,100,0.00,,,0.00,Wunderground v.1.15,2013-06-10 08:30:00,
2013-06-10 00:40:00,36.5,36.5,30.25,NNE,15,3.0,3.0,100,0.00,,,0.00,Wunderground v.1.15,2013-06-10 08:40:00,
2013-06-10 00:50:00,36.5,36.5,30.25,NNE,15,1.0,1.0,100,0.00,,,0.00,Wunderground v.1.15,2013-06-10 08:50:00,
2013-06-10 01:00:00,36.5,36.5,30.25,NNE,15,0.0,0.0,100,0.00,,,0.00,Wunderground v.1.15,2013-06-10 09:00:00,
2013-06-10 01:10:00,36.5,36.5,30.25,NNE,33,0.0,0.0,100,0.00,,,0.00,Wunderground v.1.15,2013-06-10 09:10:00,
2013-06-10 01:15:00,36.5,36.5,30.26,NNE,20,1.0,1.0,100,0.00,,,0.00,Wunderground v.1.15,2013-06-10 09:15:00,
2013-06-10 01:25:00,36.5,36.5,30.26,NNE,20,1.0,1.0,100,0.00,,,0.00,Wunderground v.1.15,2013-06-10 09:25:00,
2013-06-10 01:30:00,36.5,36.5,30.26,NNE,20,0.0,0.0,100,0.00,,,0.00,Wunderground v.1.15,2013-06-10 09:30:00,
2013-06-10 01:40:00,36.6,36.6,30.26,NNE,20,1.0,2.0,100,0.00,,,0.00,Wunderground v.1.15,2013-06-10 09:40:00,
2013-06-10 01:50:00,36.6,36.6,30.26,East,95,2.0,2.0,100,0.00,,,0.00,Wunderground v.1.15,2013-06-10 09:50:00,
2013-06-10 01:55:00,36.8,36.8,30.26,East,98,1.0,2.0,100,0.00,,,0.00,Wunderground v.1.15,2013-06-10 09:55:00,
2013-06-10 02:05:00,37.2,37.2,30.25,NNW,340,2.0,12.0,100,0.00,,,0.00,Wunderground v.1.15,2013-06-10 10:05:00,
2013-06-10 02:15:00,37.0,37.0,30.26,NNW,330,5.0,6.0,100,0.00,,,0.00,Wunderground v.1.15,2013-06-10 10:15:00,
2013-06-10 02:25:00,37.0,37.0,30.26,NNW,330,8.0,9.0,100,0.00,,,0.00,Wunderground v.1.15,2013-06-10 10:25:00,
2013-06-10 02:35:00,37.2,37.2,30.25,NNW,348,8.0,9.0,100,0.00,,,0.00,Wunderground v.1.15,2013-06-10 10:35:00,
2013-06-10 02:45:00,37.5,37.5,30.26,NNE,15,8.0,11.0,100,0.00,,,0.00,Wunderground v.1.15,2013-06-10 10:45:00,
2013-06-10 02:50:00,37.3,37.3,30.26,North,11,8.0,8.0,100,0.00,,,0.00,Wunderground v.1.15,2013-06-10 10:50:00,
2013-06-10 03:00:00,37.2,37.2,30.26,NNE,18,6.0,6.0,100,0.00,,,0.00,Wunderground v.1.15,2013-06-10 11:00:00,
2013-06-10 03:05:00,37.0,37.0,30.26,NNE,18,5.0,6.0,100,0.00,,,0.00,Wunderground v.1.15,2013-06-10 11:05:00,
2013-06-10 03:15:00,37.3,37.3,30.26,North,349,5.0,6.0,100,0.00,,,0.00,Wunderground v.1.15,2013-06-10 11:15:00,
2013-06-10 03:25:00,37.5,37.5,30.26,North,356,5.0,6.0,100,0.00,,,0.00,Wunderground v.1.15,2013-06-10 11:25:00,
2013-06-10 03:30:00,37.6,37.6,30.26,North,8,5.0,5.0,100,0.00,,,0.00,Wunderground v.1.15,2013-06-10 11:30:00,
2013-06-10 03:40:00,37.6,37.6,30.26,NNW,345,5.0,5.0,100,0.00,,,0.00,Wunderground v.1.15,2013-06-10 11:40:00,
2013-06-10 03:50:00,37.3,37.3,30.26,NNW,348,2.0,2.0,100,0.00,,,0.00,Wunderground v.1.15,2013-06-10 11:50:00,
2013-06-10 03:55:00,37.3,37.3,30.26,NNW,347,2.0,5.0,100,0.00,,,0.00,Wunderground v.1.15,2013-06-10 11:55:00,
2013-06-10 04:05:00,37.5,37.5,30.26,NNW,348,3.0,5.0,100,0.00,,,0.00,Wunderground v.1.15,2013-06-10 12:05:00,
2013-06-10 04:15:00,37.8,37.8,30.26,North,349,4.0,4.0,100,0.00,,,0.00,Wunderground v.1.15,2013-06-10 12:15:00,
2013-06-10 04:25:00,37.8,37.8,30.26,North,351,5.0,5.0,100,0.00,,,0.00,Wunderground v.1.15,2013-06-10 12:25:00,
2013-06-10 04:30:00,37.8,37.8,30.26,North,359,5.0,6.0,100,0.00,,,0.00,Wunderground v.1.15,2013-06-10 12:30:00,
2013-06-10 04:40:00,37.6,37.6,30.26,North,9,5.0,5.0,100,0.00,,,0.00,Wunderground v.1.15,2013-06-10 12:40:00,
2013-06-10 04:50:00,37.6,37.6,30.26,NNW,341,5.0,6.0,100,0.00,,,0.00,Wunderground v.1.15,2013-06-10 12:50:00,
2013-06-10 05:00:00,37.0,37.0,30.27,NNW,335,6.0,8.0,100,0.00,,,0.00,Wunderground v.1.15,2013-06-10 13:00:00,
2013-06-10 05:10:00,36.9,36.9,30.27,NNW,338,7.0,7.0,100,0.00,,,0.00,Wunderground v.1.15,2013-06-10 13:10:00,
2013-06-10 05:20:00,37.0,37.0,30.26,NNW,328,6.0,8.0,100,0.00,,,0.00,Wunderground v.1.15,2013-06-10 13:20:00,
2013-06-10 05:25:00,37.0,37.0,30.26,NNW,330,6.0,9.0,100,0.00,,,0.00,Wunderground v.1.15,2013-06-10 13:25:00,
2013-06-10 05:35:00,36.8,36.8,30.27,NNW,327,7.0,7.0,100,0.00,,,0.00,Wunderground v.1.15,2013-06-10 13:35:00,
2013-06-10 05:45:00,36.6,36.6,30.27,NW,325,6.0,6.0,100,0.00,,,0.00,Wunderground v.1.15,2013-06-10 13:45:00,
2013-06-10 05:55:00,36.6,36.6,30.27,NW,307,5.0,6.0,100,0.00,,,0.00,Wunderground v.1.15,2013-06-10 13:55:00,
2013-06-10 06:05:00,36.3,36.3,30.27,NW,307,5.0,6.0,100,0.00,,,0.00,Wunderground v.1.15,2013-06-10 14:05:00,
2013-06-10 06:15:00,35.9,35.9,30.27,NNW,332,7.0,9.0,100,0.00,,,0.00,Wunderground v.1.15,2013-06-10 14:15:00,
2013-06-10 06:25:00,35.6,35.6,30.27,NW,320,7.0,8.0,100,0.00,,,0.00,Wunderground v.1.15,2013-06-10 14:25:00,
2013-06-10 06:30:00,35.6,35.6,30.27,NNW,327,6.0,6.0,100,0.00,,,0.00,Wunderground v.1.15,2013-06-10 14:30:00,
2013-06-10 06:40:00,35.0,35.0,30.27,NW,317,4.0,4.0,100,0.00,,,0.00,Wunderground v.1.15,2013-06-10 14:40:00,
2013-06-10 06:50:00,34.7,34.7,30.27,NW,321,4.0,4.0,100,0.00,,,0.00,Wunderground v.1.15,2013-06-10 14:50:00,
2013-06-10 06:55:00,34.4,34.4,30.27,WNW,303,4.0,4.0,100,0.00,,,0.00,Wunderground v.1.15,2013-06-10 14:55:00,
2013-06-10 07:00:00,34.3,34.3,30.27,NNW,327,3.0,4.0,100,0.00,,,0.00,Wunderground v.1.15,2013-06-10 15:00:00,
2013-06-10 07:10:00,33.5,33.5,30.27,NNW,341,5.0,6.0,100,0.00,,,0.00,Wunderground v.1.15,2013-06-10 15:10:00,
2013-06-10 07:20:00,33.2,33.2,30.27,NW,325,3.0,3.0,100,0.00,,,0.00,Wunderground v.1.15,2013-06-10 15:20:00,
2013-06-10 07:30:00,32.9,32.9,30.28,WNW,287,1.0,1.0,100,0.00,,,0.00,Wunderground v.1.15,2013-06-10 15:30:00,
2013-06-10 07:35:00,32.9,32.9,30.28,WNW,287,1.0,1.0,100,0.00,,,0.00,Wunderground v.1.15,2013-06-10 15:35:00,
2013-06-10 07:45:00,32.8,32.8,30.28,North,355,1.0,1.0,100,0.00,,,0.00,Wunderground v.1.15,2013-06-10 15:45:00,
2013-06-10 07:55:00,32.9,32.9,30.28,NW,316,1.0,3.0,100,0.00,,,0.00,Wunderground v.1.15,2013-06-10 15:55:00,
2013-06-10 08:05:00,32.8,32.8,30.28,NNW,335,4.0,5.0,100,0.00,,,0.00,Wunderground v.1.15,2013-06-10 16:05:00,
2013-06-10 08:15:00,32.8,32.8,30.28,NNW,334,4.0,7.0,100,0.00,,,0.00,Wunderground v.1.15,2013-06-10 16:15:00,
2013-06-10 08:25:00,32.8,32.8,30.28,North,354,5.0,5.0,100,0.00,,,0.00,Wunderground v.1.15,2013-06-10 16:25:00,
2013-06-10 08:35:00,32.7,32.7,30.28,NW,325,4.0,4.0,100,0.00,,,0.00,Wunderground v.1.15,2013-06-10 16:35:00,
2013-06-10 08:45:00,32.8,32.8,30.28,North,349,3.0,4.0,100,0.00,,,0.00,Wunderground v.1.15,2013-06-10 16:45:00,
2013-06-10 08:50:00,32.8,32.8,30.28,North,355,3.0,7.0,100,0.00,,,0.00,Wunderground v.1.15,2013-06-10 16:50:00,
2013-06-10 09:00:00,32.8,32.8,30.28,North,2,6.0,6.0,100,0.00,,,0.00,Wunderground v.1.15,2013-06-10 17:00:00,
2013-06-10 09:10:00,33.1,33.1,30.28,NNW,344,4.0,6.0,100,0.00,,,0.00,Wunderground v.1.15,2013-06-10 17:10:00,
2013-06-10 09:20:00,33.7,33.7,30.28,North,349,5.0,5.0,100,0.00,,,0.00,Wunderground v.1.15,2013-06-10 17:20:00,
2013-06-10 09:30:00,33.8,33.8,30.28,North,352,4.0,5.0,100,0.00,,,0.00,Wunderground v.1.15,2013-06-10 17:30:00,
2013-06-10 09:35:00,33.8,33.8,30.28,NNW,345,6.0,7.0,100,0.00,,,0.00,Wunderground v.1.15,2013-06-10 17:35:00,
2013-06-10 09:45:00,34.0,34.0,30.28,NNW,345,8.0,12.0,100,0.00,,,0.00,Wunderground v.1.15,2013-06-10 17:45:00,
2013-06-10 09:55:00,34.4,34.4,30.28,NNW,330,8.0,8.0,100,0.00,,,0.00,Wunderground v.1.15,2013-06-10 17:55:00,
2013-06-10 10:05:00,34.3,34.3,30.29,NNW,345,8.0,8.0,100,0.00,,,0.00,Wunderground v.1.15,2013-06-10 18:05:00,
2013-06-10 10:15:00,34.4,34.4,30.29,NNW,338,9.0,11.0,100,0.00,,,0.00,Wunderground v.1.15,2013-06-10 18:15:00,
2013-06-10 10:25:00,34.6,34.6,30.29,NNW,331,8.0,10.0,100,0.00,,,0.00,Wunderground v.1.15,2013-06-10 18:25:00,
2013-06-10 10:35:00,35.0,35.0,30.30,NNW,335,7.0,10.0,100,0.00,,,0.00,Wunderground v.1.15,2013-06-10 18:35:00,
2013-06-10 10:45:00,35.3,35.3,30.30,NW,308,6.0,12.0,100,0.00,,,0.00,Wunderground v.1.15,2013-06-10 18:45:00,
2013-06-10 10:55:00,35.6,35.6,30.30,NNW,337,5.0,7.0,100,0.00,,,0.00,Wunderground v.1.15,2013-06-10 18:55:00,
2013-06-10 11:05:00,35.9,35.9,30.30,NNW,327,7.0,7.0,100,0.00,,,0.00,Wunderground v.1.15,2013-06-10 19:05:00,
2013-06-10 11:15:00,36.0,36.0,30.30,NNW,328,7.0,12.0,100,0.00,,,0.00,Wunderground v.1.15,2013-06-10 19:15:00,
2013-06-10 11:25:00,36.5,36.5,30.30,WNW,283,7.0,8.0,100,0.00,,,0.00,Wunderground v.1.15,2013-06-10 19:25:00,
2013-06-10 11:35:00,36.9,36.9,30.30,NW,317,6.0,7.0,100,0.00,,,0.00,Wunderground v.1.15,2013-06-10 19:35:00,
2013-06-10 11:40:00,36.9,35.9,30.30,WNW,294,5.0,5.0,96,0.00,,,0.00,Wunderground v.1.15,2013-06-10 19:40:00,
2013-06-10 11:50:00,36.9,35.9,30.30,NNW,337,7.0,7.0,96,0.00,,,0.00,Wunderground v.1.15,2013-06-10 19:50:00,
2013-06-10 12:00:00,37.3,36.3,30.30,NNW,331,6.0,6.0,96,0.00,,,0.00,Wunderground v.1.15,2013-06-10 20:00:00,
2013-06-10 12:10:00,37.8,36.5,30.30,NNW,332,7.0,7.0,95,0.00,,,0.00,Wunderground v.1.15,2013-06-10 20:10:00,
2013-06-10 12:20:00,37.9,36.3,30.31,NNW,334,7.0,7.0,94,0.00,,,0.00,Wunderground v.1.15,2013-06-10 20:20:00,
2013-06-10 12:30:00,38.0,36.2,30.31,WNW,303,7.0,11.0,93,0.00,,,0.00,Wunderground v.1.15,2013-06-10 20:30:00,
2013-06-10 12:40:00,38.2,36.4,30.31,NW,324,8.0,8.0,93,0.00,,,0.00,Wunderground v.1.15,2013-06-10 20:40:00,
2013-06-10 12:50:00,38.2,36.4,30.31,NNW,345,8.0,13.0,93,0.00,,,0.00,Wunderground v.1.15,2013-06-10 20:50:00,
2013-06-10 13:00:00,38.5,36.4,30.31,NNW,327,9.0,10.0,92,0.00,,,0.00,Wunderground v.1.15,2013-06-10 21:00:00,
2013-06-10 13:10:00,38.3,36.5,30.31,NNW,335,9.0,9.0,93,0.00,,,0.00,Wunderground v.1.15,2013-06-10 21:10:00,
2013-06-10 13:20:00,38.0,36.4,30.31,NW,320,9.0,9.0,94,0.00,,,0.00,Wunderground v.1.15,2013-06-10 21:20:00,
2013-06-10 13:30:00,38.0,36.4,30.31,NW,320,9.0,9.0,94,0.00,,,0.00,Wunderground v.1.15,2013-06-10 21:30:00,
2013-06-10 13:40:00,38.3,36.7,30.31,WNW,292,10.0,10.0,94,0.00,,,0.00,Wunderground v.1.15,2013-06-10 21:40:00,
2013-06-10 13:45:00,38.6,36.8,30.31,NW,313,9.0,13.0,93,0.00,,,0.00,Wunderground v.1.15,2013-06-10 21:45:00,
2013-06-10 13:55:00,38.6,37.0,30.31,NW,316,9.0,11.0,94,0.00,,,0.00,Wunderground v.1.15,2013-06-10 21:55:00,
2013-06-10 14:05:00,39.3,36.6,30.30,NNW,327,9.0,13.0,90,0.00,,,0.00,Wunderground v.1.15,2013-06-10 22:05:00,
2013-06-10 14:15:00,39.5,37.1,30.30,NW,307,9.0,9.0,91,0.00,,,0.00,Wunderground v.1.15,2013-06-10 22:15:00,
2013-06-10 14:25:00,39.5,37.4,30.30,NNW,330,9.0,10.0,92,0.00,,,0.00,Wunderground v.1.15,2013-06-10 22:25:00,
2013-06-10 14:35:00,39.9,37.5,30.30,WNW,290,10.0,11.0,91,0.00,,,0.00,Wunderground v.1.15,2013-06-10 22:35:00,
2013-06-10 14:45:00,40.3,36.1,30.31,WNW,299,8.0,10.0,85,0.00,,,0.00,Wunderground v.1.15,2013-06-10 22:45:00,
2013-06-10 14:55:00,39.5,35.7,30.31,NW,311,9.0,10.0,86,0.00,,,0.00,Wunderground v.1.15,2013-06-10 22:55:00,
2013-06-10 15:00:00,39.6,35.8,30.31,NW,324,9.0,9.0,86,0.00,,,0.00,Wunderground v.1.15,2013-06-10 23:00:00,
2013-06-10 15:10:00,39.6,36.0,30.31,NNW,332,8.0,8.0,87,0.00,,,0.00,Wunderground v.1.15,2013-06-10 23:10:00,
2013-06-10 15:20:00,39.3,35.8,30.31,NNW,330,9.0,9.0,87,0.00,,,0.00,Wunderground v.1.15,2013-06-10 23:20:00,
2013-06-10 15:30:00,39.6,35.8,30.31,NW,310,8.0,8.0,86,0.00,,,0.00,Wunderground v.1.15,2013-06-10 23:30:00,
2013-06-10 15:40:00,39.2,35.7,30.31,NW,321,8.0,8.0,87,0.00,,,0.00,Wunderground v.1.15,2013-06-10 23:40:00,
2013-06-10 15:50:00,38.6,34.5,30.31,NNW,327,9.0,12.0,85,0.00,,,0.00,Wunderground v.1.15,2013-06-10 23:50:00,
2013-06-10 15:55:00,37.6,34.7,30.31,NW,325,10.0,12.0,89,0.00,,,0.00,Wunderground v.1.15,2013-06-10 23:55:00,
2013-06-10 16:05:00,37.6,34.9,30.31,NW,308,11.0,13.0,90,0.00,,,0.00,Wunderground v.1.15,2013-06-11 00:05:00,
2013-06-10 16:15:00,37.9,34.7,30.31,NNW,327,8.0,10.0,88,0.00,,,0.00,Wunderground v.1.15,2013-06-11 00:15:00,
2013-06-10 16:25:00,38.3,34.5,30.31,NW,314,9.0,9.0,86,0.00,,,0.00,Wunderground v.1.15,2013-06-11 00:25:00,
2013-06-10 16:35:00,37.9,34.4,30.31,NNW,335,11.0,13.0,87,0.00,,,0.00,Wunderground v.1.15,2013-06-11 00:35:00,
2013-06-10 16:40:00,37.9,34.4,30.31,North,349,11.0,11.0,87,0.00,,,0.00,Wunderground v.1.15,2013-06-11 00:40:00,
2013-06-10 16:50:00,38.0,34.5,30.31,North,356,9.0,12.0,87,0.00,,,0.00,Wunderground v.1.15,2013-06-11 00:50:00,
2013-06-10 17:00:00,38.3,34.5,30.31,NNW,347,12.0,12.0,86,0.00,,,0.00,Wunderground v.1.15,2013-06-11 01:00:00,
2013-06-10 17:10:00,38.8,35.0,30.31,North,4,10.0,10.0,86,0.00,,,0.00,Wunderground v.1.15,2013-06-11 01:10:00,
2013-06-10 17:15:00,39.1,34.7,30.31,NNW,337,9.0,10.0,84,0.00,,,0.00,Wunderground v.1.15,2013-06-11 01:15:00,
2013-06-10 17:25:00,41.2,36.4,30.31,North,356,5.0,7.0,83,0.00,,,0.00,Wunderground v.1.15,2013-06-11 01:25:00,
2013-06-10 17:35:00,40.2,35.4,30.30,NNW,337,9.0,12.0,83,0.00,,,0.00,Wunderground v.1.15,2013-06-11 01:35:00,
2013-06-10 17:40:00,40.9,36.1,30.30,North,5,10.0,10.0,83,0.00,,,0.00,Wunderground v.1.15,2013-06-11 01:40:00,
2013-06-10 17:45:00,42.9,37.2,30.29,SSW,194,5.0,10.0,80,0.00,,,0.00,Wunderground v.1.15,2013-06-11 01:45:00,
2013-06-10 17:55:00,43.6,37.2,30.29,SSE,163,6.0,8.0,78,0.00,,,0.00,Wunderground v.1.15,2013-06-11 01:55:00,
2013-06-10 18:05:00,44.5,38.4,30.30,East,100,2.0,5.0,79,0.00,,,0.00,Wunderground v.1.15,2013-06-11 02:05:00,
2013-06-10 18:10:00,45.7,37.9,30.30,South,176,1.0,2.0,74,0.00,,,0.00,Wunderground v.1.15,2013-06-11 02:10:00,
2013-06-10 18:20:00,44.8,37.7,30.30,SSE,160,3.0,7.0,76,0.00,,,0.00,Wunderground v.1.15,2013-06-11 02:20:00,
2013-06-10 18:30:00,45.1,37.3,30.30,NNW,342,2.0,2.0,74,0.00,,,0.00,Wunderground v.1.15,2013-06-11 02:30:00,
2013-06-10 18:35:00,43.1,36.4,30.30,North,356,4.0,9.0,77,0.00,,,0.00,Wunderground v.1.15,2013-06-11 02:35:00,
2013-06-10 18:45:00,41.6,35.9,30.29,NNW,337,7.0,7.0,80,0.00,,,0.00,Wunderground v.1.15,2013-06-11 02:45:00,
2013-06-10 18:55:00,42.3,35.9,30.29,North,351,6.0,8.0,78,0.00,,,0.00,Wunderground v.1.15,2013-06-11 02:55:00,
2013-06-10 19:05:00,41.6,35.9,30.29,NNW,342,8.0,8.0,80,0.00,,,0.00,Wunderground v.1.15,2013-06-11 03:05:00,
2013-06-10 19:15:00,40.8,35.4,30.29,NNW,347,8.0,13.0,81,0.00,,,0.00,Wunderground v.1.15,2013-06-11 03:15:00,
2013-06-10 19:25:00,40.3,34.9,30.29,NNW,348,8.0,13.0,81,0.00,,,0.00,Wunderground v.1.15,2013-06-11 03:25:00,
2013-06-10 19:35:00,39.6,34.9,30.29,NW,310,8.0,12.0,83,0.00,,,0.00,Wunderground v.1.15,2013-06-11 03:35:00,
2013-06-10 19:40:00,38.8,34.4,30.29,NNW,347,9.0,9.0,84,0.00,,,0.00,Wunderground v.1.15,2013-06-11 03:40:00,
2013-06-10 19:50:00,38.6,34.8,30.29,NNW,341,11.0,11.0,86,0.00,,,0.00,Wunderground v.1.15,2013-06-11 03:50:00,
2013-06-10 20:00:00,38.5,34.7,30.29,NNW,328,10.0,14.0,86,0.00,,,0.00,Wunderground v.1.15,2013-06-11 04:00:00,
2013-06-10 20:05:00,38.3,34.5,30.29,NNW,334,11.0,14.0,86,0.00,,,0.00,Wunderground v.1.15,2013-06-11 04:05:00,
2013-06-10 20:10:00,38.0,34.5,30.29,NNW,331,11.0,11.0,87,0.00,,,0.00,Wunderground v.1.15,2013-06-11 04:10:00,
2013-06-10 20:20:00,38.0,34.2,30.29,NNW,335,10.0,13.0,86,0.00,,,0.00,Wunderground v.1.15,2013-06-11 04:20:00,
2013-06-10 20:25:00,38.5,34.7,30.29,NNW,330,11.0,13.0,86,0.00,,,0.00,Wunderground v.1.15,2013-06-11 04:25:00,
2013-06-10 20:30:00,38.5,34.4,30.29,NW,325,11.0,12.0,85,0.00,,,0.00,Wunderground v.1.15,2013-06-11 04:30:00,
2013-06-10 20:35:00,38.3,34.2,30.29,NNW,347,10.0,12.0,85,0.00,,,0.00,Wunderground v.1.15,2013-06-11 04:35:00,
2013-06-10 20:40:00,38.3,34.2,30.29,NNW,334,11.0,16.0,85,0.00,,,0.00,Wunderground v.1.15,2013-06-11 04:40:00,
2013-06-10 20:50:00,37.9,34.4,30.28,NNW,345,11.0,11.0,87,0.00,,,0.00,Wunderground v.1.15,2013-06-11 04:50:00,
2013-06-10 20:55:00,37.8,34.3,30.28,NNW,348,12.0,12.0,87,0.00,,,0.00,Wunderground v.1.15,2013-06-11 04:55:00,
2013-06-10 21:05:00,37.9,34.4,30.28,NNW,342,11.0,12.0,87,0.00,,,0.00,Wunderground v.1.15,2013-06-11 05:05:00,
2013-06-10 21:10:00,37.6,34.1,30.28,NNW,344,11.0,11.0,87,0.00,,,0.00,Wunderground v.1.15,2013-06-11 05:10:00,
2013-06-10 21:20:00,37.3,33.8,30.28,NNW,338,11.0,11.0,87,0.00,,,0.00,Wunderground v.1.15,2013-06-11 05:20:00,
2013-06-10 21:25:00,37.3,33.8,30.28,North,352,10.0,12.0,87,0.00,,,0.00,Wunderground v.1.15,2013-06-11 05:25:00,
2013-06-10 21:35:00,36.8,33.9,30.28,NNW,338,12.0,15.0,89,0.00,,,0.00,Wunderground v.1.15,2013-06-11 05:35:00,
2013-06-10 21:45:00,36.6,33.7,30.28,NNW,340,10.0,14.0,89,0.00,,,0.00,Wunderground v.1.15,2013-06-11 05:45:00,
2013-06-10 21:55:00,36.2,33.3,30.28,NNW,347,11.0,12.0,89,0.00,,,0.00,Wunderground v.1.15,2013-06-11 05:55:00,
2013-06-10 22:05:00,35.8,33.2,30.28,NNW,347,11.0,14.0,90,0.00,,,0.00,Wunderground v.1.15,2013-06-11 06:05:00,
2013-06-10 22:15:00,35.9,33.3,30.28,North,349,10.0,11.0,90,0.00,,,0.00,Wunderground v.1.15,2013-06-11 06:15:00,
2013-06-10 22:25:00,35.5,33.1,30.28,NNW,338,9.0,11.0,91,0.00,,,0.00,Wunderground v.1.15,2013-06-11 06:25:00,
2013-06-10 22:30:00,35.3,32.9,30.28,NW,323,9.0,9.0,91,0.00,,,0.00,Wunderground v.1.15,2013-06-11 06:30:00,
2013-06-10 22:40:00,35.5,33.4,30.28,NNW,341,7.0,7.0,92,0.00,,,0.00,Wunderground v.1.15,2013-06-11 06:40:00,
2013-06-10 22:50:00,35.6,33.2,30.28,NNW,341,6.0,7.0,91,0.00,,,0.00,Wunderground v.1.15,2013-06-11 06:50:00,
2013-06-10 23:00:00,34.7,32.6,30.29,NNW,338,7.0,7.0,92,0.00,,,0.00,Wunderground v.1.15,2013-06-11 07:00:00,
2013-06-10 23:05:00,34.6,32.8,30.29,NNW,345,7.0,8.0,93,0.00,,,0.00,Wunderground v.1.15,2013-06-11 07:05:00,
2013-06-10 23:15:00,34.0,32.5,30.29,North,354,7.0,8.0,94,0.00,,,0.00,Wunderground v.1.15,2013-06-11 07:15:00,
2013-06-10 23:25:00,33.7,32.4,30.29,NNW,344,8.0,8.0,95,0.00,,,0.00,Wunderground v.1.15,2013-06-11 07:25:00,
2013-06-10 23:35:00,33.7,32.4,30.29,North,351,7.0,8.0,95,0.00,,,0.00,Wunderground v.1.15,2013-06-11 07:35:00,
2013-06-10 23:45:00,33.8,33.0,30.29,NE,39,4.0,5.0,97,0.00,,,0.00,Wunderground v.1.15,2013-06-11 07:45:00,
2013-06-10 23:50:00,34.1,33.6,30.29,NE,37,1.0,1.0,98,0.00,,,0.00,Wunderground v.1.15,2013-06-11 07:50:00,